Time,TemperatureF,DewpointF,PressureIn,WindDirection,WindDirectionDegrees,WindSpeedMPH,WindSpeedGustMPH,Humidity,HourlyPrecipIn,Conditions,Clouds,dailyrainin,SoftwareType,DateUTC
2013-09-19 00:00:00,75.3,72.8,29.90,North,7,0.0,0.0,92,0.00,,,0.00,WUHU216DAVISVP2,2013-09-19 05:00:00,
2013-09-19 00:28:00,75.4,73.3,29.89,NE,45,0.0,0.0,93,0.00,,,0.00,WUHU216DAVISVP2,2013-09-19 05:28:00,
2013-09-19 00:30:00,75.3,73.1,29.89,North,7,0.0,0.0,93,0.00,,,0.00,WUHU216DAVISVP2,2013-09-19 05:30:00,
2013-09-19 00:58:00,75.2,73.1,29.89,NE,45,0.0,0.0,93,0.00,,,0.00,WUHU216DAVISVP2,2013-09-19 05:58:00,
2013-09-19 01:00:00,75.2,73.0,29.89,North,7,0.0,0.0,93,0.00,,,0.00,WUHU216DAVISVP2,2013-09-19 06:00:00,
2013-09-19 01:28:00,75.0,72.9,29.88,NE,45,0.0,0.0,93,0.00,,,0.00,WUHU216DAVISVP2,2013-09-19 06:28:00,
2013-09-19 01:30:00,74.9,72.7,29.88,North,7,0.0,0.0,93,0.00,,,0.00,WUHU216DAVISVP2,2013-09-19 06:30:00,
2013-09-19 01:58:00,74.8,73.0,29.88,NE,45,0.0,0.0,94,0.00,,,0.00,WUHU216DAVISVP2,2013-09-19 06:58:00,
2013-09-19 02:00:00,74.8,73.0,29.88,North,7,0.0,0.0,94,0.00,,,0.00,WUHU216DAVISVP2,2013-09-19 07:00:00,
2013-09-19 02:28:00,74.8,73.0,29.87,NE,45,0.0,0.0,94,0.00,,,0.00,WUHU216DAVISVP2,2013-09-19 07:28:00,
2013-09-19 02:30:00,74.8,73.0,29.87,North,7,0.0,0.0,94,0.00,,,0.00,WUHU216DAVISVP2,2013-09-19 07:30:00,
2013-09-19 02:58:00,74.9,73.1,29.87,NE,45,0.0,0.0,94,0.00,,,0.00,WUHU216DAVISVP2,2013-09-19 07:58:00,
2013-09-19 03:00:00,74.9,73.1,29.87,NE,52,0.0,1.0,94,0.00,,,0.00,WUHU216DAVISVP2,2013-09-19 08:00:00,
2013-09-19 03:28:00,74.9,73.1,29.86,NE,45,0.0,0.0,94,0.00,,,0.00,WUHU216DAVISVP2,2013-09-19 08:28:00,
2013-09-19 03:30:00,74.9,73.4,29.86,North,7,0.0,0.0,95,0.00,,,0.00,WUHU216DAVISVP2,2013-09-19 08:30:00,
2013-09-19 03:58:00,75.0,73.5,29.85,NE,45,0.0,0.0,95,0.00,,,0.00,WUHU216DAVISVP2,2013-09-19 08:58:00,
2013-09-19 04:00:00,75.0,73.5,29.85,North,7,0.0,0.0,95,0.00,,,0.00,WUHU216DAVISVP2,2013-09-19 09:00:00,
2013-09-19 04:28:00,75.0,73.5,29.85,NE,45,0.0,0.0,95,0.00,,,0.00,WUHU216DAVISVP2,2013-09-19 09:28:00,
2013-09-19 04:30:00,75.0,73.5,29.85,North,7,0.0,0.0,95,0.00,,,0.00,WUHU216DAVISVP2,2013-09-19 09:30:00,
2013-09-19 04:58:00,74.9,73.4,29.85,NNE,32,2.7,4.1,95,0.00,,,0.00,WUHU216DAVISVP2,2013-09-19 09:58:00,
2013-09-19 05:00:00,74.9,73.4,29.85,NE,52,1.4,3.0,95,0.00,,,0.00,WUHU216DAVISVP2,2013-09-19 10:00:00,
2013-09-19 05:28:00,74.8,73.3,29.85,NE,37,0.0,4.0,95,0.00,,,0.00,WUHU216DAVISVP2,2013-09-19 10:28:00,
2013-09-19 05:30:00,74.8,73.3,29.85,NNE,30,0.0,4.0,95,0.00,,,0.00,WUHU216DAVISVP2,2013-09-19 10:30:00,
2013-09-19 05:58:00,74.9,73.4,29.85,NE,36,0.0,1.4,95,0.00,,,0.00,WUHU216DAVISVP2,2013-09-19 10:58:00,
2013-09-19 06:00:00,74.9,73.4,29.85,NNE,30,0.0,2.0,95,0.00,,,0.00,WUHU216DAVISVP2,2013-09-19 11:00:00,
2013-09-19 06:28:00,74.9,73.4,29.85,NNE,31,0.0,4.1,95,0.00,,,0.00,WUHU216DAVISVP2,2013-09-19 11:28:00,
2013-09-19 06:30:00,74.9,73.4,29.85,NNE,30,0.0,3.0,95,0.00,,,0.00,WUHU216DAVISVP2,2013-09-19 11:30:00,
2013-09-19 06:58:00,74.9,73.7,29.86,NNE,32,0.0,1.4,96,0.00,,,0.00,WUHU216DAVISVP2,2013-09-19 11:58:00,
2013-09-19 07:00:00,74.9,73.7,29.86,NNE,30,0.0,2.0,96,0.00,,,0.00,WUHU216DAVISVP2,2013-09-19 12:00:00,
2013-09-19 07:28:00,75.1,73.9,29.86,NNE,33,0.0,1.4,96,0.00,,,0.00,WUHU216DAVISVP2,2013-09-19 12:28:00,
2013-09-19 07:30:00,75.0,73.8,29.86,NNE,30,0.0,1.0,96,0.00,,,0.00,WUHU216DAVISVP2,2013-09-19 12:30:00,
2013-09-19 07:58:00,75.2,74.0,29.87,NE,40,0.0,2.0,96,0.01,,,0.01,WUHU216DAVISVP2,2013-09-19 12:58:00,
2013-09-19 08:00:00,75.2,74.0,29.87,NE,52,0.0,2.0,96,0.00,,,0.00,WUHU216DAVISVP2,2013-09-19 13:00:00,
2013-09-19 08:28:00,75.6,74.4,29.87,ENE,59,0.0,2.7,96,0.01,,,0.01,WUHU216DAVISVP2,2013-09-19 13:28:00,
2013-09-19 08:30:00,75.7,74.5,29.88,NE,52,0.0,2.0,96,0.01,,,0.01,WUHU216DAVISVP2,2013-09-19 13:30:00,
2013-09-19 08:58:00,76.2,75.0,29.88,ENE,74,1.4,2.7,96,0.00,,,0.01,WUHU216DAVISVP2,2013-09-19 13:58:00,
2013-09-19 09:00:00,76.3,75.1,29.88,NE,52,0.0,2.0,96,0.00,,,0.01,WUHU216DAVISVP2,2013-09-19 14:00:00,
2013-09-19 09:28:00,76.9,75.4,29.88,ESE,103,1.4,3.0,95,0.00,,,0.01,WUHU216DAVISVP2,2013-09-19 14:28:00,
2013-09-19 09:30:00,77.0,75.5,29.88,East,97,1.4,3.0,95,0.00,,,0.01,WUHU216DAVISVP2,2013-09-19 14:30:00,
2013-09-19 09:58:00,77.8,76.0,29.89,East,101,0.0,4.1,94,0.00,,,0.01,WUHU216DAVISVP2,2013-09-19 14:58:00,
2013-09-19 10:00:00,77.8,75.6,29.89,East,97,2.7,5.0,93,0.00,,,0.01,WUHU216DAVISVP2,2013-09-19 15:00:00,
2013-09-19 10:28:00,79.3,76.5,29.89,ESE,102,2.7,6.8,91,0.00,,,0.01,WUHU216DAVISVP2,2013-09-19 15:28:00,
2013-09-19 10:30:00,80.0,76.8,29.89,East,97,2.7,5.0,90,0.00,,,0.01,WUHU216DAVISVP2,2013-09-19 15:30:00,
2013-09-19 10:58:00,81.8,77.3,29.89,East,95,4.1,6.8,86,0.00,,,0.01,WUHU216DAVISVP2,2013-09-19 15:58:00,
2013-09-19 11:00:00,82.5,76.1,29.89,East,97,2.7,8.0,81,0.00,,,0.01,WUHU216DAVISVP2,2013-09-19 16:00:00,
2013-09-19 11:28:00,83.3,76.7,29.89,SE,142,4.1,10.8,80,0.00,,,0.01,WUHU216DAVISVP2,2013-09-19 16:28:00,
2013-09-19 11:30:00,83.4,75.8,29.89,East,97,2.7,8.0,78,0.00,,,0.01,WUHU216DAVISVP2,2013-09-19 16:30:00,
2013-09-19 11:58:00,84.3,76.6,29.88,ESE,121,1.4,6.8,77,0.00,,,0.01,WUHU216DAVISVP2,2013-09-19 16:58:00,
2013-09-19 12:00:00,84.3,75.5,29.88,East,97,2.7,5.0,75,0.00,,,0.01,WUHU216DAVISVP2,2013-09-19 17:00:00,
2013-09-19 12:28:00,85.0,75.7,29.87,SE,124,0.0,6.8,73,0.00,,,0.01,WUHU216DAVISVP2,2013-09-19 17:28:00,
2013-09-19 12:30:00,85.8,76.1,29.87,East,97,2.7,5.0,73,0.00,,,0.01,WUHU216DAVISVP2,2013-09-19 17:30:00,
2013-09-19 12:58:00,86.3,76.2,29.86,ESE,110,0.0,6.0,71,0.00,,,0.01,WUHU216DAVISVP2,2013-09-19 17:58:00,
2013-09-19 13:00:00,86.7,76.2,29.86,East,97,2.7,7.0,71,0.00,,,0.01,WUHU216DAVISVP2,2013-09-19 18:00:00,
2013-09-19 13:28:00,86.9,75.9,29.85,ESE,102,2.7,6.8,69,0.00,,,0.01,WUHU216DAVISVP2,2013-09-19 18:28:00,
2013-09-19 13:30:00,87.1,74.4,29.84,East,97,2.7,6.0,66,0.00,,,0.01,WUHU216DAVISVP2,2013-09-19 18:30:00,
2013-09-19 13:58:00,86.4,76.7,29.83,ENE,64,4.1,7.0,72,0.00,,,0.01,WUHU216DAVISVP2,2013-09-19 18:58:00,
2013-09-19 14:00:00,87.2,76.6,29.83,East,97,4.1,11.0,71,0.00,,,0.01,WUHU216DAVISVP2,2013-09-19 19:00:00,
2013-09-19 14:28:00,89.3,75.5,29.81,East,87,4.1,12.1,63,0.00,,,0.01,WUHU216DAVISVP2,2013-09-19 19:28:00,
2013-09-19 14:30:00,89.4,74.2,29.81,East,97,4.1,9.0,61,0.00,,,0.01,WUHU216DAVISVP2,2013-09-19 19:30:00,
2013-09-19 14:58:00,90.0,75.2,29.80,East,93,2.7,10.8,61,0.00,,,0.01,WUHU216DAVISVP2,2013-09-19 19:58:00,
2013-09-19 15:00:00,89.9,74.6,29.80,East,97,4.1,10.0,61,0.00,,,0.01,WUHU216DAVISVP2,2013-09-19 20:00:00,
2013-09-19 15:28:00,89.6,75.3,29.78,SE,130,1.4,9.4,62,0.00,,,0.01,WUHU216DAVISVP2,2013-09-19 20:28:00,
2013-09-19 15:30:00,90.4,75.6,29.78,East,97,4.1,8.0,62,0.00,,,0.01,WUHU216DAVISVP2,2013-09-19 20:30:00,
2013-09-19 15:58:00,90.6,74.8,29.78,SE,133,6.8,8.1,59,0.00,,,0.01,WUHU216DAVISVP2,2013-09-19 20:58:00,
2013-09-19 16:00:00,90.0,73.7,29.77,East,97,2.7,9.0,59,0.00,,,0.01,WUHU216DAVISVP2,2013-09-19 21:00:00,
2013-09-19 16:28:00,91.0,74.6,29.77,ESE,105,2.7,6.8,58,0.00,,,0.01,WUHU216DAVISVP2,2013-09-19 21:28:00,
2013-09-19 16:30:00,90.3,74.0,29.76,East,97,2.7,6.0,59,0.00,,,0.01,WUHU216DAVISVP2,2013-09-19 21:30:00,
2013-09-19 16:58:00,91.1,73.7,29.76,SSE,158,1.4,12.1,56,0.00,,,0.01,WUHU216DAVISVP2,2013-09-19 21:58:00,
2013-09-19 17:00:00,91.0,73.1,29.75,SE,142,4.1,9.0,56,0.00,,,0.01,WUHU216DAVISVP2,2013-09-19 22:00:00,
2013-09-19 17:28:00,92.6,73.4,29.75,SE,136,2.7,9.4,53,0.00,,,0.01,WUHU216DAVISVP2,2013-09-19 22:28:00,
2013-09-19 17:30:00,92.6,74.1,29.75,SE,142,4.1,8.0,55,0.00,,,0.01,WUHU216DAVISVP2,2013-09-19 22:30:00,
2013-09-19 17:58:00,78.8,73.0,29.76,East,85,2.7,16.0,82,0.12,,,0.13,WUHU216DAVISVP2,2013-09-19 22:58:00,
2013-09-19 18:00:00,78.3,73.4,29.76,East,97,5.4,17.0,85,0.00,,,0.01,WUHU216DAVISVP2,2013-09-19 23:00:00,
2013-09-19 18:28:00,79.3,76.5,29.76,ENE,65,0.0,2.7,91,0.13,,,0.14,WUHU216DAVISVP2,2013-09-19 23:28:00,
2013-09-19 18:30:00,79.5,77.0,29.76,ENE,75,0.0,2.0,92,0.12,,,0.13,WUHU216DAVISVP2,2013-09-19 23:30:00,
2013-09-19 18:58:00,80.6,77.5,29.77,NNE,24,1.4,5.4,90,0.01,,,0.14,WUHU216DAVISVP2,2013-09-19 23:58:00,
2013-09-19 19:00:00,80.7,77.5,29.77,NNE,30,1.4,5.0,90,0.01,,,0.14,WUHU216DAVISVP2,2013-09-20 00:00:00,
2013-09-19 19:28:00,80.7,76.3,29.77,ENE,68,0.0,3.0,86,0.00,,,0.14,WUHU216DAVISVP2,2013-09-20 00:28:00,
2013-09-19 19:30:00,80.6,75.7,29.77,NE,52,0.0,3.0,85,0.00,,,0.14,WUHU216DAVISVP2,2013-09-20 00:30:00,
2013-09-19 19:58:00,80.5,75.7,29.78,ENE,76,0.0,2.7,85,0.00,,,0.14,WUHU216DAVISVP2,2013-09-20 00:58:00,
2013-09-19 20:00:00,80.4,75.5,29.78,ENE,75,0.0,2.0,85,0.00,,,0.14,WUHU216DAVISVP2,2013-09-20 01:00:00,
2013-09-19 20:28:00,80.1,75.3,29.78,ENE,76,0.0,1.0,85,0.00,,,0.14,WUHU216DAVISVP2,2013-09-20 01:28:00,
2013-09-19 20:30:00,80.3,75.0,29.78,ENE,75,0.0,2.0,84,0.00,,,0.14,WUHU216DAVISVP2,2013-09-20 01:30:00,
2013-09-19 20:58:00,80.6,74.8,29.80,ESE,118,0.0,3.0,82,0.00,,,0.14,WUHU216DAVISVP2,2013-09-20 01:58:00,
2013-09-19 21:00:00,80.5,74.9,29.80,ESE,120,0.0,4.0,83,0.00,,,0.14,WUHU216DAVISVP2,2013-09-20 02:00:00,
2013-09-19 21:28:00,79.6,74.8,29.81,ESE,118,0.0,0.0,85,0.01,,,0.15,WUHU216DAVISVP2,2013-09-20 02:28:00,
2013-09-19 21:30:00,79.6,74.7,29.81,North,7,0.0,0.0,85,0.00,,,0.14,WUHU216DAVISVP2,2013-09-20 02:30:00,
2013-09-19 21:58:00,79.3,74.5,29.81,ESE,119,0.0,0.0,85,0.01,,,0.15,WUHU216DAVISVP2,2013-09-20 02:58:00,
2013-09-19 22:00:00,79.3,74.4,29.81,North,7,0.0,0.0,85,0.01,,,0.15,WUHU216DAVISVP2,2013-09-20 03:00:00,
2013-09-19 22:28:00,78.9,74.8,29.82,ESE,118,0.0,0.0,87,0.00,,,0.15,WUHU216DAVISVP2,2013-09-20 03:28:00,
2013-09-19 22:30:00,78.8,74.6,29.82,North,7,0.0,0.0,87,0.00,,,0.15,WUHU216DAVISVP2,2013-09-20 03:30:00,
2013-09-19 22:58:00,79.1,74.7,29.81,SE,137,2.7,7.0,86,0.00,,,0.15,WUHU216DAVISVP2,2013-09-20 03:58:00,
2013-09-19 23:00:00,79.3,74.4,29.81,SE,142,1.4,7.0,85,0.00,,,0.15,WUHU216DAVISVP2,2013-09-20 04:00:00,
2013-09-19 23:28:00,78.8,74.4,29.82,SE,135,0.0,2.0,86,0.00,,,0.15,WUHU216DAVISVP2,2013-09-20 04:28:00,
2013-09-19 23:30:00,78.7,74.5,29.82,SE,142,0.0,3.0,87,0.00,,,0.15,WUHU216DAVISVP2,2013-09-20 04:30:00,
2013-09-19 23:58:00,78.4,74.7,29.81,SE,135,0.0,1.4,88,0.00,,,0.15,WUHU216DAVISVP2,2013-09-20 04:58:00,